Regional Weather Roundup
Issued by NWS

Home | Current Version | Previous Version | Graphics & Text | Print | Product List | Glossary Off
Versions: 1 2 3 4 5 6 7 8 9 10 11 12 13 14 15 16 17 18 19 20 21 22 23 24 25 26 27 28 29 30 31 32 33 34 35 36 37 38 39 40 41 42 43 44 45 46 47 48 49 50

000
ASUS43 KDTX 062001
RWRMI
MICHIGAN HOURLY REGIONAL WEATHER ROUNDUP
NATIONAL WEATHER SERVICE DETROIT/PONTIAC MI
400 PM EDT FRI MAY 06 2016

NOTE: "FAIR" INDICATES FEW OR NO CLOUDS BELOW 12,000 FEET WITH NO
SIGNIFICANT WEATHER AND/OR OBSTRUCTION TO VISIBILITY.

MIZ047>049-052>055-059>063-066>070-074>076-081>083-062100-
SOUTHEAST LOWER MICHIGAN

CITY           SKY/WX    TMP DP  RH WIND       PRES   REMARKS
ADRIAN         SUNNY     70  42  36 VRB5      29.89F
ALMA           SUNNY     71  36  27 SW6       29.88F
ANN ARBOR      SUNNY     70  41  34 CALM      29.88F
BAD AXE        SUNNY     68  39  33 SW6       29.89F
CARO           SUNNY     71  41  34 SW3       29.88F
DETROIT CITY   SUNNY     70  38  31 W6        29.87F
DETROIT        MOSUNNY   71  38  29 VRB5      29.88F
FLINT          SUNNY     73  40  30 VRB6      29.88F
GROSSE ILE     SUNNY     66  46  48 S8        29.86F
HILLSDALE      SUNNY     68  30  24 CALM      29.90F
HOWELL         SUNNY     69  39  32 N5        29.88F

CITY           SKY/WX    TMP DP  RH WIND       PRES   REMARKS
JACKSON        SUNNY     70  35  27 N7        29.89F
LAMBERTVILLE   SUNNY     71  41  32 N6        29.89F
LANSING        SUNNY     72  37  28 CALM      29.89F
LAPEER         FAIR      71  37  28 N6        29.88F
MASON          SUNNY     69  40  34 NW5       29.89F
MONROE         SUNNY     70  42  35 NE5       29.87F
MT. CLEMENS    SUNNY     69  41  35 E7        29.87F
PONTIAC        MOSUNNY   70  40  33 VRB5      29.87F
PORT HOPE        N/A     51  43  74 E5        29.89F
PORT HURON     SUNNY     68  37  32 N8        29.88F
TRI CITIES     SUNNY     72  37  28 SW10      29.88F
MIDLAND        FAIR      72  37  27 SE3       29.86F
TROY           SUNNY     72  38  29 CALM      29.89F
SAGINAW HB     SUNNY     70  32  24 CALM      29.87F
$$
MIZ043>046-050>051-056>058-064>065-071>073-077>080-062100-
SOUTHWEST LOWER MICHIGAN

CITY           SKY/WX    TMP DP  RH WIND       PRES   REMARKS
BATTLE CREEK   SUNNY     71  35  26 CALM      29.90F
BENTON HARBOR  CLOUDY    71  39  31 W8        29.89F
BIG RAPIDS     SUNNY     74  33  22 W9        29.85F
COLDWATER      SUNNY     70  37  29 W3        29.90F
FREMONT        FAIR      72  31  22 S7        29.87F
HOLLAND        CLOUDY    70  39  32 SW9       29.89F
GRAND RAPIDS   PTSUNNY   74  41  30 W9        29.89F
IONIA          FAIR      71  37  29 SW8       29.88F
KALAMAZOO      SUNNY     72  40  31 W6        29.89F
LUDINGTON      SUNNY     69  41  35 SW13      29.85F
MARSHALL       SUNNY     72  35  26 W6        29.89F
MOUNT PLEASANT SUNNY     73  37  27 SW9       29.86F
MUSKEGON       PTSUNNY   68  35  29 S12       29.89F
$$
MIZ016>042-062100-
NORTHERN LOWER MICHIGAN

CITY           SKY/WX    TMP DP  RH WIND       PRES   REMARKS
ALPENA         SUNNY     63  41  44 E14       29.86F
BEAVER ISLAND  SUNNY     71  36  27 SW12G20   29.81F
BELLAIRE       SUNNY     77  38  24 SW7       29.81F
CADILLAC       SUNNY     76  41  28 W6        29.84F
CHARLEVOIX     SUNNY     65  47  51 NW3       29.84F
FRANKFORT      SUNNY     69  41  36 SW10G18   29.83F
GAYLORD        SUNNY     76  37  24 CALM      29.83F
GRAYLING       SUNNY     76  37  24 CALM      29.84F
HARBOR SPRINGS SUNNY     64  42  45 SW3       29.82F
HOUGHTON LAKE  SUNNY     74  35  24 W5        29.85F
MANISTEE       SUNNY     75  37  25 SW10      29.84F
OSCODA         SUNNY     70  33  25 S12G20    29.87F
PELLSTON       SUNNY     76  37  24 S8        29.81F
ROGERS CITY    MOSUNNY   67  41  38 E8        29.84F
TRAVERSE CITY  MOSUNNY   79  39  23 VRB7      29.80F
$$
MIZ007>008-015-062100-
EASTERN UPPER MICHIGAN

CITY           SKY/WX    TMP DP  RH WIND       PRES   REMARKS
KINROSS          N/A     73  36  25 S9G16     29.81F
MACKINAC ISLAN SUNNY     64  36  34 SE6       29.83F
NEWBERRY       CLOUDY    68  38  33 S18       29.79F
S. S. MARIE    SUNNY     74  39  28 S14       29.79F
MUNISING         N/A     73  40  30 S17G23    29.71F
$$
MIZ004>006-011>014-085-062100-
CENTRAL UPPER MICHIGAN

CITY           SKY/WX    TMP DP  RH WIND       PRES   REMARKS
MANISTIQUE     MOSUNNY   51  39  62 S8        29.81F
ESCANABA       CLOUDY    59  43  55 S13       29.77F
MENOMINEE      SUNNY     72  48  43 E12       29.76F
SAWYER-GWINN   MOSUNNY   81  46  30 SE15      29.74F
$$
MIZ001>003-009>011-084-062100-
WESTERN UPPER MICHIGAN

CITY           SKY/WX    TMP DP  RH WIND       PRES   REMARKS
IRON MOUNTAIN  SUNNY     89  41  18 W13       29.70F
HOUGHTON       MOSUNNY   87  39  18 W18G28    29.65F
COPPER HARBOR    N/A     71  43  36 VRB6      29.64F
IRONWOOD         N/A     90  30  12 W16G23    29.65F
$$

ABBREVIATIONS USED IN REMARKS
   TC - TEMPERATURE IN CELSIUS
  WCI - WIND CHILL INDEX
   HX - HEAT INDEX
  VSB - VISIBILITY





USA.gov is the U.S. government's official web portal to all federal, state and local government web resources and services.